CFG29G GMMN-EDDF

Flight info

Callsign CFG29G
Flight time N/A
Altitude 34000
Route TOLSI UG5 KORIS L27 MAR DCT ALCOL N871 YAKXU/N0453F360 N871 TOPTU DCT TOU DCT GAI DCT MEN DCT NINUN DCT LATAM DCT ETREK DCT LTP DCT SOPLO DCT OMASI DCT KINNI DCT SOSAL DCT KORED DCT BERSU N871 DITON/N0449F350 DCT LADOL/N0452F360 T163 EMPAX EMPAX5B
Aircraft A321/M-SDE3FGHIRWY/LB1

Departure

Time 2026-05-07 17:41
Airport Mohammed V International Airport (GMMN)

Arrival

Time N/A
Airport Frankfurt Main Airport (EDDF)
Time Latitude Longitude Altitude Speed Heading
2026-05-07 16:54 33.37420 -7.58448 649 ft 0 kts 166°
2026-05-07 17:09 33.37398 -7.58441 648 ft 7 kts 163°
2026-05-07 17:09 33.37335 -7.58372 649 ft 15 kts 124°
2026-05-07 17:09 33.37237 -7.58317 649 ft 20 kts 164°
2026-05-07 17:10 33.37091 -7.58268 650 ft 22 kts 164°
2026-05-07 17:10 33.36981 -7.58231 650 ft 12 kts 170°
2026-05-07 17:10 33.36936 -7.58285 652 ft 9 kts 251°
2026-05-07 17:10 33.36917 -7.58356 650 ft 9 kts 254°
2026-05-07 17:11 33.36902 -7.58422 650 ft 9 kts 256°
2026-05-07 17:11 33.36838 -7.58460 651 ft 12 kts 168°
2026-05-07 17:11 33.36761 -7.58434 653 ft 11 kts 163°
2026-05-07 17:11 33.36696 -7.58411 652 ft 9 kts 163°
2026-05-07 17:12 33.36643 -7.58392 652 ft 7 kts 163°
2026-05-07 17:12 33.36601 -7.58377 652 ft 7 kts 164°
2026-05-07 17:12 33.36521 -7.58350 652 ft 15 kts 164°
2026-05-07 17:12 33.36424 -7.58317 654 ft 14 kts 164°
2026-05-07 17:13 33.36337 -7.58288 653 ft 12 kts 164°
2026-05-07 17:13 33.36261 -7.58262 653 ft 10 kts 163°
2026-05-07 17:13 33.36198 -7.58240 653 ft 9 kts 164°
2026-05-07 17:13 33.36145 -7.58222 653 ft 7 kts 164°
2026-05-07 17:14 33.36086 -7.58202 654 ft 13 kts 164°
2026-05-07 17:14 33.35994 -7.58170 654 ft 13 kts 163°
2026-05-07 17:14 33.35911 -7.58142 654 ft 12 kts 164°
2026-05-07 17:14 33.35840 -7.58118 655 ft 10 kts 164°
2026-05-07 17:15 33.35779 -7.58097 655 ft 8 kts 163°
2026-05-07 17:15 33.35730 -7.58079 655 ft 7 kts 163°
2026-05-07 17:15 33.35692 -7.58066 655 ft 5 kts 164°
2026-05-07 17:15 33.35667 -7.58058 657 ft 3 kts 164°
2026-05-07 17:16 33.35653 -7.58053 655 ft 3 kts 164°
2026-05-07 17:16 33.35596 -7.58033 658 ft 12 kts 164°
2026-05-07 17:16 33.35524 -7.58008 658 ft 10 kts 164°
2026-05-07 17:16 33.35466 -7.57989 656 ft 0 kts 164°
2026-05-07 17:19 33.35465 -7.57988 656 ft 2 kts 164°
2026-05-07 17:19 33.35435 -7.57978 656 ft 5 kts 164°
2026-05-07 17:19 33.35422 -7.57974 656 ft 0 kts 164°
2026-05-07 17:21 33.35411 -7.57970 656 ft 6 kts 164°
2026-05-07 17:22 33.35371 -7.57956 657 ft 5 kts 164°
2026-05-07 17:22 33.35348 -7.57949 657 ft 0 kts 168°
2026-05-07 17:24 33.35322 -7.57945 657 ft 6 kts 182°
2026-05-07 17:24 33.35299 -7.57950 657 ft 1 kts 196°
2026-05-07 17:24 33.35298 -7.57951 657 ft 0 kts 207°
2026-05-07 17:26 33.35296 -7.57953 657 ft 3 kts 208°
2026-05-07 17:26 33.35266 -7.57984 657 ft 6 kts 235°
2026-05-07 17:26 33.35260 -7.57997 657 ft 0 kts 243°
2026-05-07 17:32 33.35248 -7.58031 657 ft 12 kts 251°
2026-05-07 17:32 33.35238 -7.58069 657 ft 2 kts 253°
2026-05-07 17:33 33.35236 -7.58075 657 ft 0 kts 253°
2026-05-07 17:36 33.35234 -7.58085 657 ft 5 kts 253°
2026-05-07 17:37 33.35211 -7.58170 658 ft 18 kts 252°
2026-05-07 17:37 33.35265 -7.58277 659 ft 8 kts 338°
2026-05-07 17:37 33.35278 -7.58282 659 ft 0 kts 342°
2026-05-07 17:40 33.35353 -7.58309 658 ft 40 kts 344°
2026-05-07 17:40 33.35854 -7.58481 653 ft 106 kts 344°
2026-05-07 17:41 33.36724 -7.58779 653 ft 154 kts 344°
2026-05-07 17:41 33.37879 -7.59176 751 ft 184 kts 343°
2026-05-07 17:41 33.39130 -7.59604 1245 ft 189 kts 343°
2026-05-07 17:41 33.40422 -7.60010 1781 ft 194 kts 348°
2026-05-07 17:42 33.41316 -7.60177 2147 ft 197 kts 353°
2026-05-07 17:42 33.42695 -7.60203 2741 ft 198 kts
2026-05-07 17:42 33.44026 -7.59768 3309 ft 200 kts 22°
2026-05-07 17:42 33.45720 -7.58868 3952 ft 202 kts 24°
2026-05-07 17:43 33.46595 -7.58390 4190 ft 207 kts 24°
2026-05-07 17:43 33.47951 -7.57638 4404 ft 227 kts 25°
2026-05-07 17:43 33.49467 -7.56773 4512 ft 253 kts 25°
2026-05-07 17:43 33.51083 -7.55837 4748 ft 266 kts 25°
2026-05-07 17:44 33.52788 -7.54941 5291 ft 269 kts 21°
2026-05-07 17:44 33.54548 -7.54115 5848 ft 272 kts 20°
2026-05-07 17:44 33.56305 -7.53311 6398 ft 274 kts 20°
2026-05-07 17:44 33.58090 -7.52484 6948 ft 276 kts 21°
2026-05-07 17:45 33.59891 -7.51632 7504 ft 278 kts 21°
2026-05-07 17:45 33.61704 -7.50756 8065 ft 281 kts 21°
2026-05-07 17:45 33.63499 -7.49879 8606 ft 283 kts 22°
2026-05-07 17:45 33.65332 -7.48977 9158 ft 285 kts 22°
2026-05-07 17:46 33.67177 -7.48062 9718 ft 287 kts 22°
2026-05-07 17:46 33.69045 -7.47134 10275 ft 290 kts 22°
2026-05-07 17:46 33.70891 -7.46219 10820 ft 292 kts 22°
2026-05-07 17:46 33.72782 -7.45284 11376 ft 294 kts 22°
2026-05-07 17:47 33.74689 -7.44341 11930 ft 297 kts 22°
2026-05-07 17:47 33.76613 -7.43386 12489 ft 299 kts 22°
2026-05-07 17:47 33.78543 -7.42426 13028 ft 302 kts 22°
2026-05-07 17:47 33.80493 -7.41455 13594 ft 304 kts 22°
2026-05-07 17:48 33.82454 -7.40480 13907 ft 315 kts 22°
2026-05-07 17:48 33.84536 -7.39445 14041 ft 332 kts 22°
2026-05-07 17:48 33.86722 -7.38357 14170 ft 348 kts 22°
2026-05-07 17:48 33.89006 -7.37217 14303 ft 362 kts 22°
2026-05-07 17:49 33.91364 -7.36040 14644 ft 370 kts 22°
2026-05-07 17:49 33.93750 -7.34850 15084 ft 373 kts 22°
2026-05-07 17:49 33.96164 -7.33645 15534 ft 376 kts 22°
2026-05-07 17:49 33.98589 -7.32434 15996 ft 378 kts 22°
2026-05-07 17:50 34.01028 -7.31213 16438 ft 380 kts 22°
2026-05-07 17:50 34.03467 -7.29992 16861 ft 383 kts 22°
2026-05-07 17:50 34.05913 -7.28770 17278 ft 385 kts 22°
2026-05-07 17:50 34.08411 -7.27522 17695 ft 388 kts 22°
2026-05-07 17:51 34.10913 -7.26274 18090 ft 390 kts 22°
2026-05-07 17:51 34.13438 -7.25013 18477 ft 392 kts 22°
2026-05-07 17:51 34.15942 -7.23761 18829 ft 394 kts 22°
2026-05-07 17:51 34.18487 -7.22485 19167 ft 396 kts 22°
2026-05-07 17:52 34.21026 -7.21210 19501 ft 398 kts 22°
2026-05-07 17:52 34.23594 -7.19922 19829 ft 400 kts 22°
2026-05-07 17:52 34.26185 -7.18620 20155 ft 402 kts 22°
2026-05-07 17:52 34.28747 -7.17328 20471 ft 404 kts 22°
2026-05-07 17:53 34.31354 -7.16012 20780 ft 406 kts 22°
2026-05-07 17:53 34.33974 -7.14688 21100 ft 408 kts 22°
2026-05-07 17:53 34.36612 -7.13353 21410 ft 410 kts 22°
2026-05-07 17:53 34.39222 -7.12035 21724 ft 412 kts 22°
2026-05-07 17:54 34.41882 -7.10696 22035 ft 414 kts 22°
2026-05-07 17:54 34.44549 -7.09355 22346 ft 416 kts 22°
2026-05-07 17:54 34.47239 -7.08000 22662 ft 418 kts 22°
2026-05-07 17:54 34.49933 -7.06640 22966 ft 420 kts 22°
2026-05-07 17:55 34.52598 -7.05290 23258 ft 422 kts 22°
2026-05-07 17:55 34.55315 -7.03910 23567 ft 424 kts 22°
2026-05-07 17:55 34.58038 -7.02525 23860 ft 425 kts 22°
2026-05-07 17:55 34.60784 -7.01129 24153 ft 427 kts 22°
2026-05-07 17:56 34.63532 -6.99719 24436 ft 429 kts 22°
2026-05-07 17:56 34.66285 -6.98301 24713 ft 431 kts 22°
2026-05-07 17:56 34.69061 -6.96871 24977 ft 433 kts 22°
2026-05-07 17:56 34.71840 -6.95438 25246 ft 434 kts 22°
2026-05-07 17:57 34.74598 -6.94016 25503 ft 436 kts 22°
2026-05-07 17:57 34.76498 -6.93036 25669 ft 437 kts 22°
2026-05-07 17:57 34.80224 -6.91112 26009 ft 440 kts 22°
2026-05-07 17:57 34.83049 -6.89653 26255 ft 441 kts 22°
2026-05-07 17:58 34.85893 -6.88183 26505 ft 443 kts 22°
2026-05-07 17:58 34.88699 -6.86732 26747 ft 444 kts 22°
2026-05-07 17:58 34.91562 -6.85251 26984 ft 446 kts 22°
2026-05-07 17:58 34.94422 -6.83770 27213 ft 448 kts 22°
2026-05-07 17:59 34.97306 -6.82277 27437 ft 449 kts 22°
2026-05-07 17:59 35.00208 -6.80773 27672 ft 451 kts 22°
2026-05-07 17:59 35.03073 -6.79287 27885 ft 452 kts 22°
2026-05-07 17:59 35.05978 -6.77780 28097 ft 454 kts 22°
2026-05-07 18:00 35.08891 -6.76269 28301 ft 455 kts 22°
2026-05-07 18:00 35.11818 -6.74748 28490 ft 457 kts 22°
2026-05-07 18:00 35.14721 -6.73240 28671 ft 458 kts 22°
2026-05-07 18:00 35.17659 -6.71712 28841 ft 459 kts 22°
2026-05-07 18:01 35.20610 -6.70177 29010 ft 460 kts 22°
2026-05-07 18:01 35.23556 -6.68644 29164 ft 461 kts 22°
2026-05-07 18:01 35.26514 -6.67103 29312 ft 462 kts 22°
2026-05-07 18:01 35.29451 -6.65573 29450 ft 463 kts 23°
2026-05-07 18:02 35.35414 -6.62463 29714 ft 465 kts 23°
2026-05-07 18:02 35.38403 -6.60902 29835 ft 466 kts 23°
2026-05-07 18:02 35.41389 -6.59343 29965 ft 467 kts 23°
2026-05-07 18:03 35.44379 -6.57780 30086 ft 467 kts 23°
2026-05-07 18:03 35.47332 -6.56236 30213 ft 467 kts 23°
2026-05-07 18:03 35.50334 -6.54665 30339 ft 468 kts 23°
2026-05-07 18:03 35.53335 -6.53094 30469 ft 468 kts 23°
2026-05-07 18:04 35.56332 -6.51524 30596 ft 468 kts 23°
2026-05-07 18:04 35.59295 -6.49971 30745 ft 468 kts 23°
2026-05-07 18:04 35.62283 -6.48403 30879 ft 467 kts 23°
2026-05-07 18:04 35.65289 -6.46826 31028 ft 467 kts 23°
2026-05-07 18:05 35.68285 -6.45252 31173 ft 467 kts 23°
2026-05-07 18:05 35.71272 -6.43682 31308 ft 467 kts 23°
2026-05-07 18:05 35.74266 -6.42108 31456 ft 466 kts 23°
2026-05-07 18:05 35.77160 -6.40398 31589 ft 466 kts 32°
2026-05-07 18:06 35.79688 -6.37894 31720 ft 466 kts 47°
2026-05-07 18:06 35.81594 -6.34669 31857 ft 465 kts 63°
2026-05-07 18:06 35.82722 -6.30992 31969 ft 465 kts 77°
2026-05-07 18:06 35.83427 -6.27091 32099 ft 464 kts 72°
2026-05-07 18:07 35.84798 -6.23498 32225 ft 463 kts 53°
2026-05-07 18:07 35.87059 -6.20715 32341 ft 461 kts 33°
2026-05-07 18:07 35.89020 -6.19309 32443 ft 460 kts 27°